TimeEDT,TemperatureF,Dew PointF,Humidity,Sea Level PressureIn,VisibilityMPH,Wind Direction,Wind SpeedMPH,Gust SpeedMPH,PrecipitationIn,Events,Conditions,WindDirDegrees,DateUTC
12:15 AM,32.0,14.0,48,30.02,10.0,NW,17.3,21.9,N/A,,Clear,310,2013-03-15 04:15:00
12:35 AM,32.0,14.0,48,30.02,10.0,NW,15.0,23.0,N/A,,Clear,310,2013-03-15 04:35:00
12:55 AM,32.0,12.2,44,30.03,10.0,NW,11.5,20.7,N/A,,Clear,310,2013-03-15 04:55:00
1:15 AM,32.0,12.2,44,30.03,10.0,NW,12.7,17.3,N/A,,Clear,320,2013-03-15 05:15:00
1:35 AM,32.0,12.2,44,30.03,10.0,NW,11.5,-,N/A,,Clear,310,2013-03-15 05:35:00
1:55 AM,32.0,14.0,48,30.03,10.0,NW,12.7,16.1,N/A,,Clear,310,2013-03-15 05:55:00
2:15 AM,32.0,14.0,48,30.03,10.0,NW,11.5,-,N/A,,Clear,310,2013-03-15 06:15:00
2:35 AM,32.0,14.0,48,30.04,10.0,NW,15.0,19.6,N/A,,Clear,310,2013-03-15 06:35:00
3:15 AM,30.2,14.0,51,30.03,10.0,WNW,8.1,-,N/A,,Clear,300,2013-03-15 07:15:00
3:35 AM,30.2,14.0,51,30.03,10.0,WNW,5.8,-,N/A,,Clear,290,2013-03-15 07:35:00
3:55 AM,28.4,14.0,55,30.03,10.0,WNW,9.2,-,N/A,,Clear,300,2013-03-15 07:55:00
4:15 AM,28.4,14.0,55,30.02,10.0,WNW,4.6,-,N/A,,Clear,300,2013-03-15 08:15:00
4:35 AM,30.2,14.0,51,30.02,10.0,Calm,Calm,-,N/A,,Clear,0,2013-03-15 08:35:00
4:55 AM,28.4,14.0,55,30.02,10.0,Calm,Calm,-,N/A,,Clear,0,2013-03-15 08:55:00
5:15 AM,30.2,12.2,47,30.02,10.0,Calm,Calm,-,N/A,,Clear,0,2013-03-15 09:15:00
5:35 AM,28.4,14.0,55,30.02,10.0,West,3.5,-,N/A,,Clear,260,2013-03-15 09:35:00
5:55 AM,28.4,14.0,55,30.03,10.0,South,3.5,-,N/A,,Clear,180,2013-03-15 09:55:00
6:15 AM,30.2,12.2,47,30.03,10.0,WSW,3.5,-,N/A,,Clear,250,2013-03-15 10:15:00
6:35 AM,28.4,12.2,51,30.02,10.0,SSW,3.5,-,N/A,,Clear,200,2013-03-15 10:35:00
6:55 AM,30.2,12.2,47,30.02,10.0,Calm,Calm,-,N/A,,Clear,0,2013-03-15 10:55:00
7:15 AM,28.4,14.0,55,30.02,10.0,SSW,3.5,-,N/A,,Clear,200,2013-03-15 11:15:00
7:35 AM,30.2,14.0,51,30.03,10.0,Calm,Calm,-,N/A,,Clear,0,2013-03-15 11:35:00
7:55 AM,30.2,14.0,51,30.02,10.0,SSW,3.5,-,N/A,,Clear,210,2013-03-15 11:55:00
8:15 AM,30.2,14.0,51,30.02,10.0,South,3.5,-,N/A,,Clear,190,2013-03-15 12:15:00
8:35 AM,32.0,14.0,48,30.02,10.0,SSW,3.5,-,N/A,,Clear,210,2013-03-15 12:35:00
8:55 AM,32.0,17.6,55,30.01,10.0,SSW,3.5,-,N/A,,Clear,200,2013-03-15 12:55:00
9:15 AM,32.0,17.6,55,30.00,10.0,SW,3.5,-,N/A,,Clear,220,2013-03-15 13:15:00
9:35 AM,32.0,19.4,60,30.00,10.0,SSW,5.8,-,N/A,,Clear,210,2013-03-15 13:35:00
9:55 AM,33.8,21.2,60,29.99,10.0,WSW,4.6,-,N/A,,Clear,240,2013-03-15 13:55:00
10:15 AM,33.8,21.2,60,29.99,10.0,SW,5.8,-,N/A,,Clear,220,2013-03-15 14:15:00
10:35 AM,35.6,23.0,60,29.97,10.0,WSW,6.9,-,N/A,,Clear,250,2013-03-15 14:35:00
10:55 AM,37.4,23.0,56,29.96,10.0,SW,8.1,-,N/A,,Clear,220,2013-03-15 14:55:00
11:55 AM,39.2,23.0,52,29.94,10.0,SW,8.1,-,N/A,,Overcast,230,2013-03-15 15:55:00
12:15 PM,39.2,23.0,52,29.92,10.0,WSW,6.9,-,N/A,,Overcast,240,2013-03-15 16:15:00
12:35 PM,41.0,23.0,49,29.92,10.0,WSW,9.2,-,N/A,,Overcast,250,2013-03-15 16:35:00
12:55 PM,41.0,21.2,45,29.91,10.0,WSW,10.4,-,N/A,,Overcast,240,2013-03-15 16:55:00
1:15 PM,42.8,23.0,46,29.89,10.0,WSW,9.2,16.1,N/A,,Overcast,250,2013-03-15 17:15:00
1:35 PM,44.6,23.0,43,29.89,10.0,WSW,10.4,17.3,N/A,,Mostly Cloudy,240,2013-03-15 17:35:00
1:55 PM,46.4,23.0,40,29.87,10.0,West,8.1,18.4,N/A,,Scattered Clouds,260,2013-03-15 17:55:00
2:15 PM,46.4,23.0,40,29.86,10.0,SW,10.4,20.7,N/A,,Scattered Clouds,220,2013-03-15 18:15:00
2:35 PM,46.4,23.0,40,29.85,10.0,WSW,12.7,20.7,N/A,,Mostly Cloudy,250,2013-03-15 18:35:00
2:55 PM,48.2,23.0,37,29.83,10.0,WSW,10.4,18.4,N/A,,Overcast,250,2013-03-15 18:55:00
3:15 PM,48.2,23.0,37,29.82,10.0,SW,11.5,21.9,N/A,,Overcast,230,2013-03-15 19:15:00
3:35 PM,51.8,24.8,35,29.80,10.0,WSW,5.8,19.6,N/A,,Scattered Clouds,240,2013-03-15 19:35:00
3:55 PM,48.2,24.8,40,29.79,10.0,WSW,6.9,18.4,N/A,,Mostly Cloudy,240,2013-03-15 19:55:00
4:15 PM,50.0,24.8,37,29.78,10.0,WSW,8.1,18.4,N/A,,Mostly Cloudy,240,2013-03-15 20:15:00
4:35 PM,51.8,24.8,35,29.78,10.0,WSW,8.1,17.3,N/A,,Mostly Cloudy,240,2013-03-15 20:35:00
4:55 PM,51.8,26.6,38,29.77,10.0,WSW,9.2,19.6,N/A,,Mostly Cloudy,250,2013-03-15 20:55:00
5:15 PM,51.8,26.6,38,29.76,10.0,WSW,8.1,20.7,N/A,,Scattered Clouds,250,2013-03-15 21:15:00
5:35 PM,51.8,26.6,38,29.76,10.0,WSW,8.1,-,N/A,,Partly Cloudy,240,2013-03-15 21:35:00
5:55 PM,51.8,26.6,38,29.76,10.0,WSW,6.9,19.6,N/A,,Mostly Cloudy,250,2013-03-15 21:55:00
6:15 PM,51.8,28.4,41,29.75,10.0,WSW,11.5,17.3,N/A,,Partly Cloudy,240,2013-03-15 22:15:00
6:35 PM,50.0,28.4,43,29.75,10.0,WSW,8.1,-,N/A,,Clear,250,2013-03-15 22:35:00
6:55 PM,50.0,28.4,43,29.76,10.0,West,6.9,-,N/A,,Clear,260,2013-03-15 22:55:00
7:15 PM,48.2,30.2,50,29.76,10.0,West,8.1,-,N/A,,Clear,260,2013-03-15 23:15:00
7:35 PM,48.2,32.0,54,29.77,10.0,West,6.9,-,N/A,,Partly Cloudy,270,2013-03-15 23:35:00
7:55 PM,48.2,32.0,54,29.78,10.0,West,6.9,-,N/A,,Partly Cloudy,270,2013-03-15 23:55:00
8:15 PM,46.4,32.0,57,29.79,10.0,West,6.9,-,N/A,,Clear,270,2013-03-16 00:15:00
8:35 PM,46.4,32.0,57,29.79,10.0,West,10.4,-,N/A,,Clear,280,2013-03-16 00:35:00
8:55 PM,46.4,32.0,57,29.79,10.0,WNW,12.7,18.4,N/A,,Clear,290,2013-03-16 00:55:00
9:15 PM,44.6,32.0,61,29.79,10.0,WNW,10.4,-,N/A,,Clear,300,2013-03-16 01:15:00
9:35 PM,42.8,32.0,66,29.80,10.0,WNW,8.1,-,N/A,,Clear,290,2013-03-16 01:35:00
9:55 PM,42.8,32.0,66,29.80,10.0,WNW,6.9,-,N/A,,Clear,290,2013-03-16 01:55:00
10:15 PM,42.8,32.0,66,29.81,10.0,West,6.9,-,N/A,,Clear,280,2013-03-16 02:15:00
10:35 PM,42.8,32.0,66,29.80,10.0,West,6.9,-,N/A,,Clear,280,2013-03-16 02:35:00
10:55 PM,44.6,32.0,61,29.80,10.0,West,5.8,-,N/A,,Clear,260,2013-03-16 02:55:00
11:15 PM,39.2,32.0,75,29.80,10.0,WNW,6.9,-,N/A,,Partly Cloudy,290,2013-03-16 03:15:00
11:35 PM,39.2,32.0,75,29.80,10.0,WNW,8.1,-,N/A,,Partly Cloudy,300,2013-03-16 03:35:00
11:55 PM,44.6,32.0,61,29.79,10.0,NW,9.2,-,N/A,,Mostly Cloudy,320,2013-03-16 03:55:00